Location: Gleizolles
(44.4833°N, 6.7667°E)
Time: 10:15:57
(UTC+00:00)

Altair - Pass Details

Date: 25 June 2024
Orbit: 1502 x 1682 km, 47.2° (Epoch: 20 July)

Event Time Altitude Azimuth Distance (km) Brightness Sun altitude
Rises 23:38:35 0° 219° (SW) 4,624 - -22.2°
Reaches altitude 10° 23:41:41 10° 215° (SW) 3,645 - -22.2°
Exits shadow 23:46:34 33° 196° (SSW) 2,303 7.9 -22.1°
Maximum altitude 23:50:24 51° 142° (SE) 1,839 7.6 -22.1°
Drops below altitude 10° 23:59:18 10° 71° (ENE) 3,725 9.8 -22.0°
Sets 00:02:30 0° 66° (ENE) 4,733 10.5 -21.9°
